| time (UTC) | temp F | wind direction | speed MPH | gust MPH | rain 1hr in | rain 24hr in | rain mn in | humidity % | barometer mb |
| 20260901231506 | 68 | 224 | 12.0 | 18.0 | 0.00 | 0.00 | 0.00 | 51 | 1015.4 |
| 20260901231004 | 69 | 264 | 7.0 | 17.0 | 0.00 | 0.00 | 0.00 | 50 | 1015.3 |
| 20260901230505 | 69 | 236 | 4.0 | 15.0 | 0.00 | 0.00 | 0.00 | 50 | 1015.4 |
| 20260901230012 | 69 | 212 | 6.0 | 17.0 | 0.00 | 0.00 | 0.00 | 50 | 1015.5 |
| 20260901225505 | 69 | 305 | 6.0 | 17.0 | 0.00 | 0.00 | 0.00 | 50 | 1015.4 |
| 20260901225007 | 69 | 224 | 8.0 | 16.0 | 0.00 | 0.00 | 0.00 | 49 | 1015.5 |
| 20260901224519 | 69 | 305 | 5.0 | 18.0 | 0.00 | 0.00 | 0.00 | 50 | 1015.4 |
| 20260901224001 | 70 | 271 | 8.0 | 18.0 | 0.00 | 0.00 | 0.00 | 50 | 1015.4 |
| 20260901223502 | 69 | 244 | 6.0 | 16.0 | 0.00 | 0.00 | 0.00 | 50 | 1015.4 |
| 20260901223005 | 69 | 173 | 3.0 | 16.0 | 0.00 | 0.00 | 0.00 | 51 | 1015.4 |
| 20260901222503 | 69 | 233 | 6.0 | 16.0 | 0.00 | 0.00 | 0.00 | 51 | 1015.5 |
| 20260901222002 | 69 | 28 | 5.0 | 16.0 | 0.00 | 0.00 | 0.00 | 51 | 1015.5 |
| 20260901221504 | 70 | 320 | 7.0 | 16.0 | 0.00 | 0.00 | 0.00 | 52 | 1015.6 |
| 20260901221004 | 69 | 276 | 7.0 | 13.0 | 0.00 | 0.00 | 0.00 | 52 | 1015.7 |
| 20260901220504 | 69 | 294 | 5.0 | 15.0 | 0.00 | 0.00 | 0.00 | 53 | 1015.7 |
| 20260901220004 | 69 | 289 | 6.0 | 15.0 | 0.00 | 0.00 | 0.00 | 53 | 1015.7 |
| 20260901215505 | 69 | 318 | 5.0 | 15.0 | 0.00 | 0.00 | 0.00 | 52 | 1015.8 |
| 20260901215004 | 69 | 278 | 4.0 | 15.0 | 0.00 | 0.00 | 0.00 | 53 | 1015.8 |
| 20260901214507 | 70 | 281 | 5.0 | 12.0 | 0.00 | 0.00 | 0.00 | 52 | 1015.8 |
| 20260901214004 | 69 | 304 | 6.0 | 15.0 | 0.00 | 0.00 | 0.00 | 53 | 1015.8 |
| 20260901213508 | 69 | 291 | 4.0 | 15.0 | 0.00 | 0.00 | 0.00 | 52 | 1015.9 |
| 20260901213016 | 70 | 343 | 5.0 | 16.0 | 0.00 | 0.00 | 0.00 | 51 | 1015.9 |
| 20260901212509 | 70 | 262 | 3.0 | 16.0 | 0.00 | 0.00 | 0.00 | 49 | 1015.8 |
| 20260901212013 | 70 | 229 | 10.0 | 16.0 | 0.00 | 0.00 | 0.00 | 47 | 1015.8 |
| 20260901211503 | 70 | 206 | 6.0 | 17.0 | 0.00 | 0.00 | 0.00 | 47 | 1015.8 |
| 20260901211003 | 70 | 295 | 5.0 | 17.0 | 0.00 | 0.00 | 0.00 | 48 | 1015.8 |
| 20260901210503 | 70 | 260 | 6.0 | 11.0 | 0.00 | 0.00 | 0.00 | 49 | 1015.9 |
| 20260901210003 | 70 | 243 | 4.0 | 11.0 | 0.00 | 0.00 | 0.00 | 50 | 1015.9 |
| 20260901205506 | 70 | 245 | 6.0 | 14.0 | 0.00 | 0.00 | 0.00 | 50 | 1015.9 |
| 20260901205002 | 70 | 242 | 7.0 | 14.0 | 0.00 | 0.00 | 0.00 | 49 | 1015.8 |
| 20260901204510 | 70 | 282 | 3.0 | 12.0 | 0.00 | 0.00 | 0.00 | 48 | 1015.8 |
| 20260901204003 | 70 | 242 | 3.0 | 12.0 | 0.00 | 0.00 | 0.00 | 48 | 1015.8 |
| 20260901203505 | 70 | 148 | 4.0 | 10.0 | 0.00 | 0.00 | 0.00 | 48 | 1015.8 |
| 20260901203018 | 69 | 266 | 3.0 | 11.0 | 0.00 | 0.00 | 0.00 | 48 | 1015.9 |
| 20260901202505 | 69 | 259 | 4.0 | 11.0 | 0.00 | 0.00 | 0.00 | 49 | 1016.0 |
| 20260901202008 | 69 | 261 | 4.0 | 14.0 | 0.00 | 0.00 | 0.00 | 50 | 1016.1 |
| 20260901201519 | 69 | 248 | 7.0 | 14.0 | 0.00 | 0.00 | 0.00 | 50 | 1016.2 |
| 20260901201008 | 69 | 250 | 4.0 | 11.0 | 0.00 | 0.00 | 0.00 | 50 | 1016.1 |
| 20260901200515 | 69 | 249 | 3.0 | 11.0 | 0.00 | 0.00 | 0.00 | 50 | 1016.2 |
| 20260901200026 | 68 | 324 | 3.0 | 10.0 | 0.00 | 0.00 | 0.00 | 51 | 1016.1 |
| 20260901195504 | 68 | 337 | 3.0 | 10.0 | 0.00 | 0.00 | 0.00 | 52 | 1016.3 |
| 20260901195004 | 68 | 250 | 5.0 | 11.0 | 0.00 | 0.00 | 0.00 | 53 | 1016.2 |
| 20260901194504 | 68 | 302 | 4.0 | 11.0 | 0.00 | 0.00 | 0.00 | 53 | 1016.2 |
| 20260901194019 | 68 | 332 | 3.0 | 12.0 | 0.00 | 0.00 | 0.00 | 54 | 1016.3 |
| 20260901193503 | 67 | 265 | 3.0 | 13.0 | 0.00 | 0.00 | 0.00 | 55 | 1016.3 |
| 20260901193011 | 68 | 294 | 5.0 | 13.0 | 0.00 | 0.00 | 0.00 | 54 | 1016.3 |
| 20260901192503 | 67 | 304 | 4.0 | 12.0 | 0.00 | 0.00 | 0.00 | 56 | 1016.4 |
| 20260901192005 | 67 | 295 | 5.0 | 12.0 | 0.00 | 0.00 | 0.00 | 55 | 1016.4 |
| 20260901191517 | 67 | 269 | 4.0 | 14.0 | 0.00 | 0.00 | 0.00 | 55 | 1016.4 |
| 20260901191007 | 66 | 305 | 4.0 | 14.0 | 0.00 | 0.00 | 0.00 | 56 | 1016.3 |
| 20260901190508 | 66 | 241 | 7.0 | 14.0 | 0.00 | 0.00 | 0.00 | 57 | 1016.4 |
| 20260901190025 | 66 | 283 | 6.0 | 11.0 | 0.00 | 0.00 | 0.00 | 57 | 1016.4 |
| 20260901185517 | 66 | 314 | 5.0 | 11.0 | 0.00 | 0.00 | 0.00 | 56 | 1016.5 |
| 20260901185013 | 67 | 238 | 5.0 | 13.0 | 0.00 | 0.00 | 0.00 | 55 | 1016.5 |
| 20260901184527 | 67 | 232 | 5.0 | 13.0 | 0.00 | 0.00 | 0.00 | 57 | 1016.5 |
| 20260901184014 | 67 | 176 | 4.0 | 9.0 | 0.00 | 0.00 | 0.00 | 58 | 1016.5 |
| 20260901183506 | 66 | 172 | 3.0 | 8.0 | 0.00 | 0.00 | 0.00 | 57 | 1016.5 |
| 20260901183010 | 65 | 300 | 2.0 | 8.0 | 0.00 | 0.00 | 0.00 | 57 | 1016.6 |
| 20260901182503 | 65 | 229 | 4.0 | 8.0 | 0.00 | 0.00 | 0.00 | 58 | 1016.5 |
| 20260901182004 | 65 | 304 | 4.0 | 14.0 | 0.00 | 0.00 | 0.00 | 58 | 1016.5 |
| 20260901181516 | 66 | 278 | 4.0 | 14.0 | 0.00 | 0.00 | 0.00 | 57 | 1016.5 |
| 20260901181011 | 66 | 275 | 5.0 | 14.0 | 0.00 | 0.00 | 0.00 | 59 | 1016.5 |
| 20260901180508 | 66 | 257 | 3.0 | 11.0 | 0.00 | 0.00 | 0.00 | 59 | 1016.4 |
| 20260901180017 | 66 | 250 | 5.0 | 14.0 | 0.00 | 0.00 | 0.00 | 59 | 1016.4 |
| 20260901175508 | 66 | 252 | 7.0 | 14.0 | 0.00 | 0.00 | 0.00 | 58 | 1016.3 |
| 20260901175008 | 66 | 233 | 5.0 | 9.0 | 0.00 | 0.00 | 0.00 | 59 | 1016.3 |
| 20260901174524 | 66 | 216 | 3.0 | 9.0 | 0.00 | 0.00 | 0.00 | 60 | 1016.2 |
| 20260901174010 | 65 | 190 | 3.0 | 11.0 | 0.00 | 0.00 | 0.00 | 61 | 1016.1 |
| 20260901173513 | 65 | 251 | 4.0 | 12.0 | 0.00 | 0.00 | 0.00 | 61 | 1016.2 |
| 20260901173035 | 66 | 178 | 3.0 | 12.0 | 0.00 | 0.00 | 0.00 | 59 | 1016.2 |
| 20260901172515 | 66 | 303 | 5.0 | 10.0 | 0.00 | 0.00 | 0.00 | 60 | 1016.1 |
| 20260901172013 | 66 | 261 | 4.0 | 13.0 | 0.00 | 0.00 | 0.00 | 58 | 1016.0 |
| 20260901171509 | 65 | 255 | 2.0 | 13.0 | 0.00 | 0.00 | 0.00 | 59 | 1016.0 |
| 20260901171007 | 65 | 215 | 6.0 | 13.0 | 0.00 | 0.00 | 0.00 | 59 | 1016.0 |
| 20260901170504 | 65 | 259 | 7.0 | 13.0 | 0.00 | 0.00 | 0.00 | 59 | 1015.9 |
| 20260901170029 | 65 | 220 | 7.0 | 14.0 | 0.00 | 0.00 | 0.00 | 58 | 1016.0 |
| 20260901165506 | 65 | 158 | 7.0 | 14.0 | 0.00 | 0.00 | 0.00 | 62 | 1015.9 |
| 20260901165008 | 65 | 237 | 4.0 | 10.0 | 0.00 | 0.00 | 0.00 | 63 | 1015.9 |
| 20260901164521 | 64 | 211 | 5.0 | 10.0 | 0.00 | 0.00 | 0.00 | 65 | 1015.9 |
| 20260901164009 | 64 | 248 | 4.0 | 9.0 | 0.00 | 0.00 | 0.00 | 64 | 1015.8 |
| 20260901163510 | 64 | 266 | 4.0 | 11.0 | 0.00 | 0.00 | 0.00 | 66 | 1015.8 |
| 20260901163035 | 63 | 233 | 4.0 | 11.0 | 0.00 | 0.00 | 0.00 | 67 | 1016.0 |
| 20260901162517 | 63 | 227 | 3.0 | 11.0 | 0.00 | 0.00 | 0.00 | 69 | 1016.0 |
| 20260901162011 | 63 | 250 | 4.0 | 11.0 | 0.00 | 0.00 | 0.00 | 70 | 1016.0 |
| 20260901161529 | 63 | 233 | 3.0 | 11.0 | 0.00 | 0.00 | 0.00 | 71 | 1015.8 |
| 20260901161020 | 63 | 235 | 4.0 | 11.0 | 0.00 | 0.00 | 0.00 | 70 | 1015.8 |
| 20260901160514 | 63 | 165 | 3.0 | 8.0 | 0.00 | 0.00 | 0.00 | 72 | 1015.8 |
| 20260901160031 | 62 | 244 | 3.0 | 8.0 | 0.00 | 0.00 | 0.00 | 74 | 1015.7 |
| 20260901155505 | 61 | 245 | 1.0 | 8.0 | 0.00 | 0.00 | 0.00 | 74 | 1015.7 |
| 20260901155005 | 61 | 257 | 4.0 | 9.0 | 0.00 | 0.00 | 0.00 | 74 | 1015.6 |
| 20260901154516 | 62 | 230 | 2.0 | 13.0 | 0.00 | 0.00 | 0.00 | 74 | 1015.5 |
| 20260901154011 | 62 | 233 | 6.0 | 13.0 | 0.00 | 0.00 | 0.00 | 74 | 1015.5 |
| 20260901153511 | 61 | 249 | 3.0 | 11.0 | 0.00 | 0.00 | 0.00 | 74 | 1015.5 |
| 20260901153018 | 61 | 145 | 4.0 | 8.0 | 0.00 | 0.00 | 0.00 | 75 | 1015.4 |
| 20260901152511 | 61 | 255 | 4.0 | 10.0 | 0.00 | 0.00 | 0.00 | 74 | 1015.4 |
| 20260901152002 | 61 | 174 | 1.0 | 10.0 | 0.00 | 0.00 | 0.00 | 75 | 1015.3 |
| 20260901151503 | 61 | 243 | 4.0 | 11.0 | 0.00 | 0.00 | 0.00 | 75 | 1015.3 |
| 20260901151004 | 61 | 236 | 7.0 | 11.0 | 0.00 | 0.00 | 0.00 | 75 | 1015.2 |
| 20260901150503 | 62 | 243 | 3.0 | 9.0 | 0.00 | 0.00 | 0.00 | 75 | 1015.2 |
| 20260901150007 | 61 | 252 | 4.0 | 9.0 | 0.00 | 0.00 | 0.00 | 75 | 1015.2 |
| 20260901145505 | 61 | 205 | 3.0 | 6.0 | 0.00 | 0.00 | 0.00 | 75 | 1015.2 |
| 20260901145005 | 61 | 170 | 4.0 | 10.0 | 0.00 | 0.00 | 0.00 | 74 | 1015.0 |
| 20260901144513 | 61 | 240 | 4.0 | 10.0 | 0.00 | 0.00 | 0.00 | 73 | 1015.0 |
| 20260901144005 | 61 | 254 | 3.0 | 10.0 | 0.00 | 0.00 | 0.00 | 72 | 1015.0 |
| 20260901143508 | 61 | 243 | 3.0 | 9.0 | 0.00 | 0.00 | 0.00 | 73 | 1014.8 |
| 20260901143017 | 61 | 295 | 3.0 | 8.0 | 0.00 | 0.00 | 0.00 | 73 | 1014.9 |
| 20260901142508 | 61 | 248 | 3.0 | 7.0 | 0.00 | 0.00 | 0.00 | 73 | 1014.9 |
| 20260901142011 | 61 | 234 | 3.0 | 7.0 | 0.00 | 0.00 | 0.00 | 75 | 1014.8 |
| 20260901141503 | 60 | 213 | 2.0 | 6.0 | 0.00 | 0.00 | 0.00 | 74 | 1014.8 |
| 20260901141003 | 60 | 176 | 1.0 | 6.0 | 0.00 | 0.00 | 0.00 | 76 | 1014.7 |
| 20260901140504 | 60 | 250 | 2.0 | 11.0 | 0.00 | 0.00 | 0.00 | 76 | 1014.6 |
| 20260901140007 | 60 | 273 | 6.0 | 11.0 | 0.00 | 0.00 | 0.00 | 75 | 1014.4 |
| 20260901135503 | 60 | 293 | 5.0 | 8.0 | 0.00 | 0.00 | 0.00 | 77 | 1014.5 |
| 20260901135004 | 59 | 274 | 3.0 | 6.0 | 0.00 | 0.00 | 0.00 | 78 | 1014.4 |
| 20260901134507 | 59 | 252 | 1.0 | 5.0 | 0.00 | 0.00 | 0.00 | 78 | 1014.2 |
| 20260901134009 | 59 | 304 | 1.0 | 5.0 | 0.00 | 0.00 | 0.00 | 79 | 1014.2 |
| 20260901133506 | 59 | 245 | 2.0 | 7.0 | 0.00 | 0.00 | 0.00 | 79 | 1014.2 |
| 20260901133012 | 59 | 162 | 2.0 | 7.0 | 0.00 | 0.00 | 0.00 | 79 | 1014.1 |
| 20260901132505 | 59 | 263 | 3.0 | 8.0 | 0.00 | 0.00 | 0.00 | 79 | 1014.0 |
| 20260901132009 | 59 | 277 | 1.0 | 8.0 | 0.00 | 0.00 | 0.00 | 79 | 1014.0 |
| 20260901131521 | 59 | 235 | 3.0 | 8.0 | 0.00 | 0.00 | 0.00 | 79 | 1013.9 |
| 20260901131008 | 59 | 259 | 2.0 | 7.0 | 0.00 | 0.00 | 0.00 | 79 | 1013.9 |
| 20260901130512 | 59 | 237 | 1.0 | 7.0 | 0.00 | 0.00 | 0.00 | 79 | 1013.9 |
| 20260901130027 | 59 | 200 | 2.0 | 7.0 | 0.00 | 0.00 | 0.00 | 78 | 1014.1 |
| 20260901125503 | 59 | 247 | 3.0 | 7.0 | 0.00 | 0.00 | 0.00 | 78 | 1013.9 |
| 20260901125003 | 59 | 226 | 2.0 | 7.0 | 0.00 | 0.00 | 0.00 | 78 | 1013.9 |
| 20260901124507 | 59 | 231 | 3.0 | 7.0 | 0.00 | 0.00 | 0.00 | 78 | 1013.8 |
| 20260901124004 | 59 | 290 | 2.0 | 7.0 | 0.00 | 0.00 | 0.00 | 78 | 1013.8 |
| 20260901123506 | 59 | 306 | 2.0 | 10.0 | 0.00 | 0.00 | 0.00 | 77 | 1013.8 |
| 20260901123027 | 59 | 246 | 2.0 | 10.0 | 0.00 | 0.00 | 0.00 | 77 | 1013.8 |
| 20260901122504 | 59 | 258 | 4.0 | 9.0 | 0.00 | 0.00 | 0.00 | 78 | 1013.7 |
| 20260901122006 | 59 | 139 | 3.0 | 9.0 | 0.00 | 0.00 | 0.00 | 78 | 1013.7 |
| 20260901121514 | 59 | 241 | 3.0 | 9.0 | 0.00 | 0.00 | 0.00 | 78 | 1013.6 |
| 20260901121007 | 59 | 238 | 4.0 | 11.0 | 0.00 | 0.00 | 0.00 | 78 | 1013.6 |
| 20260901120511 | 59 | 166 | 5.0 | 11.0 | 0.00 | 0.00 | 0.00 | 77 | 1013.6 |
| 20260901120022 | 59 | 251 | 4.0 | 8.0 | 0.00 | 0.00 | 0.00 | 77 | 1013.5 |
| 20260901115509 | 59 | 245 | 4.0 | 12.0 | 0.00 | 0.00 | 0.00 | 77 | 1013.6 |
| 20260901115009 | 59 | 248 | 4.0 | 12.0 | 0.00 | 0.00 | 0.00 | 77 | 1013.7 |
| 20260901114537 | 59 | 235 | 4.0 | 9.0 | 0.00 | 0.00 | 0.00 | 77 | 1013.7 |
| 20260901114011 | 59 | 279 | 4.0 | 10.0 | 0.00 | 0.00 | 0.00 | 77 | 1013.7 |
| 20260901113513 | 59 | 229 | 3.0 | 10.0 | 0.00 | 0.00 | 0.00 | 76 | 1013.8 |
| 20260901113013 | 60 | 250 | 3.0 | 12.0 | 0.00 | 0.00 | 0.00 | 75 | 1013.8 |
| 20260901112505 | 60 | 221 | 4.0 | 12.0 | 0.00 | 0.00 | 0.00 | 75 | 1013.8 |
| 20260901112003 | 60 | 231 | 6.0 | 12.0 | 0.00 | 0.00 | 0.00 | 75 | 1013.9 |
| 20260901111510 | 60 | 245 | 5.0 | 10.0 | 0.00 | 0.00 | 0.00 | 74 | 1013.9 |
| 20260901111006 | 60 | 230 | 4.0 | 11.0 | 0.00 | 0.00 | 0.00 | 74 | 1013.8 |
| 20260901110508 | 60 | 247 | 4.0 | 11.0 | 0.00 | 0.00 | 0.00 | 74 | 1013.7 |
| 20260901110017 | 60 | 266 | 3.0 | 8.0 | 0.00 | 0.00 | 0.00 | 74 | 1013.8 |
| 20260901105509 | 59 | 262 | 3.0 | 8.0 | 0.00 | 0.00 | 0.00 | 74 | 1013.8 |
| 20260901105011 | 59 | 257 | 3.0 | 10.0 | 0.00 | 0.00 | 0.00 | 74 | 1013.8 |
| 20260901104524 | 59 | 238 | 4.0 | 10.0 | 0.00 | 0.00 | 0.00 | 74 | 1013.7 |
| 20260901104013 | 59 | 239 | 3.0 | 10.0 | 0.00 | 0.00 | 0.00 | 74 | 1013.7 |
| 20260901103513 | 59 | 294 | 2.0 | 13.0 | 0.00 | 0.00 | 0.00 | 74 | 1013.6 |
| 20260901103031 | 59 | 239 | 3.0 | 13.0 | 0.00 | 0.00 | 0.00 | 73 | 1013.6 |
| 20260901102512 | 59 | 203 | 2.0 | 9.0 | 0.00 | 0.00 | 0.00 | 74 | 1013.5 |
| 20260901102015 | 59 | 296 | 3.0 | 10.0 | 0.00 | 0.00 | 0.00 | 74 | 1013.5 |
| 20260901101532 | 59 | 245 | 4.0 | 10.0 | 0.00 | 0.00 | 0.00 | 74 | 1013.5 |
| 20260901101005 | 59 | 225 | 5.0 | 10.0 | 0.00 | 0.00 | 0.00 | 74 | 1013.5 |
| 20260901100504 | 59 | 256 | 3.0 | 10.0 | 0.00 | 0.00 | 0.00 | 74 | 1013.4 |
| 20260901100013 | 59 | 300 | 2.0 | 12.0 | 0.00 | 0.00 | 0.00 | 74 | 1013.4 |
| 20260901095509 | 59 | 240 | 4.0 | 12.0 | 0.00 | 0.00 | 0.00 | 74 | 1013.5 |
| 20260901095007 | 59 | 248 | 4.0 | 13.0 | 0.00 | 0.00 | 0.00 | 73 | 1013.5 |
| 20260901094527 | 59 | 233 | 4.0 | 13.0 | 0.00 | 0.00 | 0.00 | 73 | 1013.5 |
| 20260901094008 | 59 | 245 | 5.0 | 12.0 | 0.00 | 0.00 | 0.00 | 73 | 1013.5 |
| 20260901093510 | 59 | 252 | 4.0 | 12.0 | 0.00 | 0.00 | 0.00 | 73 | 1013.6 |
| 20260901093029 | 59 | 271 | 4.0 | 12.0 | 0.00 | 0.00 | 0.00 | 73 | 1013.6 |
| 20260901092514 | 59 | 258 | 4.0 | 12.0 | 0.00 | 0.00 | 0.00 | 73 | 1013.6 |
| 20260901092004 | 59 | 269 | 4.0 | 12.0 | 0.00 | 0.00 | 0.00 | 73 | 1013.7 |
| 20260901091505 | 59 | 271 | 4.0 | 12.0 | 0.00 | 0.00 | 0.00 | 73 | 1013.6 |
| 20260901091003 | 59 | 214 | 5.0 | 11.0 | 0.00 | 0.00 | 0.00 | 73 | 1013.7 |
| 20260901090502 | 59 | 248 | 5.0 | 16.0 | 0.00 | 0.00 | 0.00 | 73 | 1013.7 |
| 20260901090013 | 59 | 176 | 7.0 | 16.0 | 0.00 | 0.00 | 0.00 | 73 | 1013.7 |
| 20260901085504 | 59 | 235 | 5.0 | 14.0 | 0.00 | 0.00 | 0.00 | 73 | 1013.7 |
| 20260901085007 | 59 | 305 | 7.0 | 14.0 | 0.00 | 0.00 | 0.00 | 73 | 1013.7 |
| 20260901084514 | 59 | 241 | 6.0 | 15.0 | 0.00 | 0.00 | 0.00 | 73 | 1013.7 |
| 20260901084010 | 59 | 120 | 3.0 | 15.0 | 0.00 | 0.00 | 0.00 | 73 | 1013.8 |
| 20260901083506 | 59 | 248 | 5.0 | 11.0 | 0.00 | 0.00 | 0.00 | 73 | 1013.8 |
| 20260901083022 | 59 | 180 | 6.0 | 12.0 | 0.00 | 0.00 | 0.00 | 73 | 1013.7 |
| 20260901082509 | 59 | 253 | 6.0 | 15.0 | 0.00 | 0.00 | 0.00 | 73 | 1013.7 |
| 20260901082009 | 59 | 193 | 7.0 | 15.0 | 0.00 | 0.00 | 0.00 | 73 | 1013.7 |
| 20260901081525 | 59 | 230 | 2.0 | 11.0 | 0.00 | 0.00 | 0.00 | 73 | 1013.7 |
| 20260901081015 | 59 | 238 | 3.0 | 11.0 | 0.00 | 0.00 | 0.00 | 74 | 1013.7 |
| 20260901080517 | 59 | 249 | 4.0 | 10.0 | 0.00 | 0.00 | 0.00 | 74 | 1013.7 |
| 20260901080006 | 59 | 205 | 3.0 | 11.0 | 0.00 | 0.00 | 0.00 | 74 | 1013.7 |
| 20260901075504 | 59 | 271 | 2.0 | 14.0 | 0.00 | 0.00 | 0.00 | 74 | 1013.6 |
| 20260901075004 | 59 | 221 | 6.0 | 14.0 | 0.00 | 0.00 | 0.00 | 74 | 1013.6 |
| 20260901074515 | 59 | 220 | 4.0 | 12.0 | 0.00 | 0.00 | 0.00 | 73 | 1013.6 |
| 20260901074010 | 59 | 243 | 5.0 | 12.0 | 0.00 | 0.00 | 0.00 | 73 | 1013.6 |
| 20260901073506 | 59 | 153 | 5.0 | 12.0 | 0.00 | 0.00 | 0.00 | 73 | 1013.6 |
| 20260901073016 | 59 | 219 | 6.0 | 14.0 | 0.00 | 0.00 | 0.00 | 73 | 1013.6 |
| 20260901072510 | 59 | 186 | 5.0 | 14.0 | 0.00 | 0.00 | 0.00 | 74 | 1013.5 |
| 20260901072007 | 59 | 281 | 5.0 | 12.0 | 0.00 | 0.00 | 0.00 | 74 | 1013.6 |
| 20260901071523 | 58 | 243 | 6.0 | 11.0 | 0.00 | 0.00 | 0.00 | 74 | 1013.6 |
| 20260901071013 | 58 | 227 | 4.0 | 10.0 | 0.00 | 0.00 | 0.00 | 75 | 1013.5 |
| 20260901070515 | 58 | 256 | 3.0 | 10.0 | 0.00 | 0.00 | 0.00 | 75 | 1013.5 |
| 20260901070033 | 58 | 311 | 3.0 | 10.0 | 0.00 | 0.00 | 0.00 | 75 | 1013.5 |
| 20260901065515 | 59 | 291 | 3.0 | 13.0 | 0.00 | 0.00 | 0.00 | 74 | 1013.6 |
| 20260901065015 | 59 | 232 | 7.0 | 13.0 | 0.00 | 0.00 | 0.00 | 74 | 1013.7 |
| 20260901064530 | 59 | 236 | 4.0 | 14.0 | 0.00 | 0.00 | 0.00 | 74 | 1013.7 |
| 20260901064006 | 59 | 279 | 3.0 | 14.0 | 0.00 | 0.00 | 0.00 | 74 | 1013.6 |
| 20260901063506 | 59 | 240 | 5.0 | 14.0 | 0.00 | 0.00 | 0.00 | 74 | 1013.6 |
| 20260901063014 | 59 | 243 | 3.0 | 12.0 | 0.00 | 0.00 | 0.00 | 74 | 1013.6 |
| 20260901062508 | 59 | 228 | 2.0 | 12.0 | 0.00 | 0.00 | 0.00 | 74 | 1013.7 |
| 20260901062011 | 59 | 261 | 4.0 | 16.0 | 0.00 | 0.00 | 0.00 | 74 | 1013.8 |
| 20260901061521 | 59 | 240 | 5.0 | 16.0 | 0.00 | 0.00 | 0.00 | 74 | 1013.8 |
| 20260901061010 | 59 | 215 | 4.0 | 14.0 | 0.00 | 0.00 | 0.00 | 74 | 1013.8 |
| 20260901060509 | 59 | 283 | 4.0 | 14.0 | 0.00 | 0.00 | 0.00 | 75 | 1013.8 |
| 20260901060028 | 59 | 226 | 3.0 | 10.0 | 0.00 | 0.00 | 0.00 | 75 | 1013.8 |
| 20260901055514 | 59 | 266 | 5.0 | 9.0 | 0.00 | 0.00 | 0.00 | 75 | 1013.8 |
| 20260901055011 | 58 | 252 | 4.0 | 11.0 | 0.00 | 0.00 | 0.00 | 75 | 1013.8 |
| 20260901054529 | 58 | 236 | 4.0 | 11.0 | 0.00 | 0.00 | 0.00 | 75 | 1013.9 |
| 20260901054014 | 58 | 259 | 6.0 | 11.0 | 0.00 | 0.00 | 0.00 | 75 | 1013.7 |
| 20260901053516 | 58 | 249 | 3.0 | 10.0 | 0.00 | 0.00 | 0.00 | 75 | 1013.6 |
| 20260901053035 | 58 | 235 | 3.0 | 13.0 | 0.00 | 0.00 | 0.00 | 75 | 1013.6 |
| 20260901052515 | 58 | 259 | 5.0 | 13.0 | 0.00 | 0.00 | 0.00 | 75 | 1013.5 |
| 20260901052017 | 58 | 244 | 2.0 | 8.0 | 0.00 | 0.00 | 0.00 | 75 | 1013.6 |
| 20260901051514 | 58 | 233 | 3.0 | 16.0 | 0.00 | 0.00 | 0.00 | 75 | 1013.5 |
| 20260901051011 | 58 | 296 | 3.0 | 17.0 | 0.00 | 0.00 | 0.00 | 75 | 1013.5 |
| 20260901050510 | 58 | 228 | 6.0 | 17.0 | 0.00 | 0.00 | 0.00 | 75 | 1013.4 |
| 20260901050024 | 58 | 276 | 7.0 | 12.0 | 0.00 | 0.00 | 0.00 | 75 | 1013.4 |
| 20260901045512 | 58 | 326 | 4.0 | 11.0 | 0.00 | 0.00 | 0.00 | 75 | 1013.4 |
| 20260901045015 | 58 | 241 | 3.0 | 8.0 | 0.00 | 0.00 | 0.00 | 75 | 1013.4 |
| 20260901044536 | 58 | 227 | 3.0 | 8.0 | 0.00 | 0.00 | 0.00 | 75 | 1013.4 |
| 20260901044015 | 59 | 233 | 3.0 | 6.0 | 0.00 | 0.00 | 0.00 | 74 | 1013.4 |
| 20260901043516 | 59 | 285 | 3.0 | 10.0 | 0.00 | 0.00 | 0.00 | 74 | 1013.5 |
| 20260901043032 | 59 | 295 | 5.0 | 10.0 | 0.00 | 0.00 | 0.00 | 74 | 1013.4 |
| 20260901042516 | 59 | 250 | 2.0 | 11.0 | 0.00 | 0.00 | 0.00 | 75 | 1013.5 |
| 20260901042015 | 59 | 266 | 3.0 | 11.0 | 0.00 | 0.00 | 0.00 | 75 | 1013.5 |
| 20260901041535 | 59 | 255 | 4.0 | 11.0 | 0.00 | 0.00 | 0.00 | 75 | 1013.4 |
| 20260901041018 | 59 | 298 | 1.0 | 12.0 | 0.00 | 0.00 | 0.00 | 75 | 1013.4 |
| 20260901040519 | 59 | 285 | 3.0 | 12.0 | 0.00 | 0.00 | 0.00 | 75 | 1013.3 |
| 20260901040035 | 59 | 301 | 6.0 | 12.0 | 0.00 | 0.00 | 0.00 | 75 | 1013.3 |
| 20260901035507 | 59 | 213 | 5.0 | 10.0 | 0.00 | 0.00 | 0.00 | 75 | 1013.3 |
| 20260901035008 | 59 | 302 | 2.0 | 10.0 | 0.00 | 0.00 | 0.00 | 75 | 1013.3 |
| 20260901034534 | 59 | 161 | 4.0 | 12.0 | 0.00 | 0.00 | 0.00 | 75 | 1013.2 |
| 20260901034011 | 59 | 236 | 6.0 | 18.0 | 0.00 | 0.00 | 0.00 | 75 | 1013.0 |
| 20260901033514 | 59 | 228 | 8.0 | 18.0 | 0.00 | 0.00 | 0.00 | 76 | 1013.0 |
| 20260901033036 | 59 | 231 | 8.0 | 18.0 | 0.00 | 0.00 | 0.00 | 75 | 1012.9 |
| 20260901032513 | 59 | 248 | 6.0 | 19.0 | 0.00 | 0.00 | 0.00 | 76 | 1012.9 |
| 20260901032016 | 59 | 243 | 8.0 | 19.0 | 0.00 | 0.00 | 0.00 | 75 | 1012.9 |
| 20260901031536 | 59 | 245 | 9.0 | 22.0 | 0.00 | 0.00 | 0.00 | 75 | 1012.8 |
| 20260901031016 | 59 | 252 | 8.0 | 22.0 | 0.00 | 0.00 | 0.00 | 75 | 1012.8 |
| 20260901030516 | 59 | 233 | 9.0 | 22.0 | 0.00 | 0.00 | 0.00 | 75 | 1012.7 |
| 20260901030036 | 59 | 253 | 10.0 | 20.0 | 0.00 | 0.00 | 0.00 | 75 | 1012.6 |
| 20260901025505 | 59 | 241 | 10.0 | 18.0 | 0.00 | 0.00 | 0.00 | 75 | 1012.7 |
| 20260901025002 | 59 | 229 | 10.0 | 18.0 | 0.00 | 0.00 | 0.00 | 75 | 1012.7 |
| 20260901024503 | 59 | 253 | 8.0 | 17.0 | 0.00 | 0.00 | 0.00 | 75 | 1012.8 |
| 20260901024005 | 59 | 214 | 7.0 | 17.0 | 0.00 | 0.00 | 0.00 | 75 | 1012.8 |
| 20260901023503 | 59 | 245 | 9.0 | 17.0 | 0.00 | 0.00 | 0.00 | 74 | 1012.7 |
| 20260901023005 | 60 | 244 | 7.0 | 17.0 | 0.00 | 0.00 | 0.00 | 74 | 1012.7 |
| 20260901022503 | 60 | 203 | 7.0 | 16.0 | 0.00 | 0.00 | 0.00 | 74 | 1012.5 |
| 20260901022003 | 60 | 259 | 7.0 | 20.0 | 0.00 | 0.00 | 0.00 | 74 | 1012.6 |
| 20260901021508 | 60 | 221 | 7.0 | 20.0 | 0.00 | 0.00 | 0.00 | 73 | 1012.5 |
| 20260901021005 | 60 | 162 | 7.0 | 15.0 | 0.00 | 0.00 | 0.00 | 73 | 1012.5 |
| 20260901020504 | 60 | 255 | 9.0 | 20.0 | 0.00 | 0.00 | 0.00 | 73 | 1012.6 |
| 20260901020011 | 60 | 264 | 9.0 | 20.0 | 0.00 | 0.00 | 0.00 | 73 | 1012.4 |
| 20260901015506 | 61 | 268 | 5.0 | 19.0 | 0.00 | 0.00 | 0.00 | 72 | 1012.5 |
| 20260901015007 | 61 | 236 | 7.0 | 18.0 | 0.00 | 0.00 | 0.00 | 72 | 1012.6 |
| 20260901014514 | 61 | 302 | 8.0 | 14.0 | 0.00 | 0.00 | 0.00 | 72 | 1012.6 |
| 20260901014008 | 62 | 244 | 5.0 | 15.0 | 0.00 | 0.00 | 0.00 | 71 | 1012.7 |
| 20260901013507 | 62 | 221 | 5.0 | 15.0 | 0.00 | 0.00 | 0.00 | 71 | 1012.6 |
| 20260901013016 | 62 | 243 | 9.0 | 15.0 | 0.00 | 0.00 | 0.00 | 70 | 1012.5 |
| 20260901012502 | 63 | 239 | 7.0 | 12.0 | 0.00 | 0.00 | 0.00 | 69 | 1012.5 |
| 20260901012002 | 63 | 300 | 5.0 | 12.0 | 0.00 | 0.00 | 0.00 | 68 | 1012.5 |
| 20260901011511 | 63 | 323 | 5.0 | 13.0 | 0.00 | 0.00 | 0.00 | 67 | 1012.5 |
| 20260901011004 | 64 | 280 | 4.0 | 13.0 | 0.00 | 0.00 | 0.00 | 67 | 1012.5 |
| 20260901010505 | 64 | 291 | 5.0 | 13.0 | 0.00 | 0.00 | 0.00 | 67 | 1012.4 |
| 20260901010009 | 64 | 261 | 5.0 | 16.0 | 0.00 | 0.00 | 0.00 | 67 | 1012.6 |
| 20260901005502 | 64 | 205 | 5.0 | 16.0 | 0.00 | 0.00 | 0.00 | 67 | 1012.4 |
| 20260901005004 | 64 | 295 | 5.0 | 16.0 | 0.00 | 0.00 | 0.00 | 66 | 1012.4 |
| 20260901004516 | 64 | 293 | 5.0 | 13.0 | 0.00 | 0.00 | 0.00 | 66 | 1012.5 |
| 20260901004005 | 65 | 274 | 4.0 | 12.0 | 0.00 | 0.00 | 0.00 | 65 | 1012.3 |
| 20260901003507 | 65 | 286 | 5.0 | 13.0 | 0.00 | 0.00 | 0.00 | 65 | 1012.3 |
| 20260901003029 | 65 | 291 | 4.0 | 18.0 | 0.00 | 0.00 | 0.00 | 65 | 1012.2 |
| 20260901002507 | 65 | 231 | 5.0 | 18.0 | 0.00 | 0.00 | 0.00 | 66 | 1012.2 |
| 20260901002008 | 65 | 278 | 3.0 | 16.0 | 0.00 | 0.00 | 0.00 | 66 | 1012.2 |
| 20260901001520 | 64 | 237 | 6.0 | 16.0 | 0.00 | 0.00 | 0.00 | 66 | 1012.3 |
| 20260901001010 | 65 | 280 | 6.0 | 14.0 | 0.00 | 0.00 | 0.00 | 65 | 1012.3 |
| 20260901000502 | 65 | 224 | 5.0 | 14.0 | 0.00 | 0.00 | 0.00 | 65 | 1012.4 |
| 20260901000004 | 65 | 238 | 5.0 | 14.0 | 0.00 | 0.00 | 0.00 | 65 | 1012.4 |
| 20260831235504 | 65 | 303 | 5.0 | 15.0 | 0.00 | 0.00 | 0.00 | 65 | 1012.5 |
| 20260831235004 | 65 | 311 | 4.0 | 15.0 | 0.00 | 0.00 | 0.00 | 66 | 1012.6 |
| 20260831234509 | 65 | 261 | 6.0 | 18.0 | 0.00 | 0.00 | 0.00 | 66 | 1012.5 |
| 20260831234004 | 65 | 345 | 7.0 | 18.0 | 0.00 | 0.00 | 0.00 | 66 | 1012.4 |
| 20260831233504 | 65 | 199 | 6.0 | 17.0 | 0.00 | 0.00 | 0.00 | 65 | 1012.5 |
| 20260831233011 | 65 | 255 | 5.0 | 18.0 | 0.00 | 0.00 | 0.00 | 66 | 1012.4 |
| 20260831232507 | 65 | 283 | 4.0 | 18.0 | 0.00 | 0.00 | 0.00 | 65 | 1012.4 |
| 20260831232006 | 65 | 253 | 6.0 | 17.0 | 0.00 | 0.00 | 0.00 | 65 | 1012.7 |